Home > Weather > Starnberg > Past weeks

Flag for Germany Weather for the Past 2 Weeks in Starnberg, Bavaria, Germany

Now
41 °F

Sunny.


Feels Like: 36 °F
Forecast: 33 / 39 °F
Wind: 7 mph from South

Location: Oberpfaffenhofen

Current Time: Feb 9, 2016 at 9:19:11 AM

Latest Report: Feb 9, 2016 at 8:50 AM


Visibility: 10 mi

Pressure: 29.68 "Hg (27.60 "Hg at 590m altitude)

Humidity: 87%

Dew point: 37 °F

Location of StarnbergLocation

Historic Weather in Starnberg — Graph

°F

Starnberg Temperature Yesterday

Maximum temperature yesterday: 55 °F (at 1:50 PM)
Minimum temperature yesterday: 32 °F (at 6:50 AM)
Average temperature yesterday: 48 °F

High & Low Weather Summary for the Past Weeks

 TemperatureHumidityPressure
High59 °F (Feb 6, 1:20 PM)100% (Jan 28, 6:50 PM)30.45 "Hg (Jan 28, 6:50 PM)
Low32 °F (Jan 31, 3:50 PM)36% (Feb 6, 1:20 PM)29.62 "Hg (Feb 7, 1:50 PM)
Average45 °F73%30.18 "Hg
* Reported Jan 25 7:20 AM — Feb 9 7:50 AM, Starnberg, Weather by CustomWeather, © 2016

Note: Actual official high and low records may vary slightly from our data, if they occured in-between our weather recording intervals... More about our weather records

Advertising

Starnberg Weather History for the Previous 24 Hours

 ConditionsComfort  
Time TempWeatherWind HumidityBarometerVisibility
7:50 AM
Tue, Feb 9
41 °FSunny.7 mph81%29.71 "Hg10 mi
6:50 AM41 °FClear.13 mph87%29.74 "Hg10 mi
8:20 PM
Mon, Feb 8
50 °FPassing clouds.33 mph58%29.71 "HgN/A
7:50 PM50 °FPassing clouds.25 mph54%29.71 "HgN/A
7:20 PM50 °FPassing clouds.17 mph54%29.68 "HgN/A
6:50 PM52 °FSprinkles. Partly cloudy.23 mph54%29.68 "HgN/A
6:20 PM52 °FPartly cloudy.17 mph47%29.65 "HgN/A
5:50 PM52 °FSprinkles. Partly cloudy.17 mph47%29.65 "HgN/A
5:20 PM52 °FScattered showers. Broken clouds.13 mph44%29.62 "HgN/A
4:50 PM54 °FSunny.23 mph41%29.62 "Hg10 mi
4:20 PM55 °FSunny.21 mph38%29.65 "Hg10 mi
3:50 PM54 °FSunny.7 mph51%29.65 "Hg10 mi
3:20 PM54 °FPassing clouds.7 mph47%29.62 "HgN/A
2:50 PM54 °FSunny.6 mph51%29.65 "Hg10 mi
2:20 PM54 °FSunny.7 mph54%29.65 "Hg10 mi
1:50 PM55 °FSunny.8 mph44%29.65 "Hg10 mi
1:20 PM54 °FSunny.9 mph54%29.65 "Hg10 mi
12:50 PM54 °FSunny.12 mph54%29.68 "Hg10 mi
12:20 PM48 °FSunny.14 mph66%29.68 "Hg10 mi
11:50 AM46 °FSunny.10 mph66%29.71 "Hg10 mi
11:20 AM45 °FSunny.9 mph71%29.71 "Hg10 mi
10:50 AM45 °FSunny.9 mph71%29.74 "Hg10 mi
10:20 AM45 °FSunny.10 mph66%29.77 "Hg10 mi
9:50 AM43 °FSunny.7 mph76%29.77 "Hg10 mi
9:20 AM43 °FSunny.13 mph71%29.77 "Hg10 mi
Weather by CustomWeather, © 2016

See weather overviewHow to use our weather pages